Location: Lucerne Valley
(34.4439°N, 116.9669°E)
Time: 18:38:32
(UTC-08:00)

Envisat - Pass Details

Date: 08 October 2017
Orbit: 764 x 766 km, 98.2° (Epoch: 16 December)

Event Time Altitude Azimuth Distance (km) Brightness Sun altitude
Exits shadow 05:59:58 19° 306° (NW) 1,756 5.4 -39.8°
Drops below altitude 10° 06:01:50 10° 322° (NW) 2,305 6.0 -40.2°
Sets 06:04:28 0° 334° (NNW) 3,236 6.8 -40.7°
